******************************************************************************* JPL/HORIZONS PANSTARRS (C/2017 T2) 2025-Dec-12 17:42:28 Rec #:90004454 (+COV) Soln.date: 2024-Jul-30_14:57:25 # obs: 6922 (2017-2021) IAU76/J2000 helio. ecliptic osc. elements (au, days, deg., period=Julian yrs): EPOCH= 2458830.5 ! 2019-Dec-13.0000000 (TDB) RMSW= n.a. EC= .9996775001442036 QR= 1.615095480449734 TP= 2458974.4499501484 OM= 64.3787798536482 W= 92.99331641725109 IN= 57.23144008937928 A= 5008.05024070957 MA= 359.9995996751246 ADIST= 10014.48538593869 PER= 354414.2847093 N= 2.781E-6 ANGMOM= .030914379 DAN= 3.40755 DDN= 3.06944 L= 159.897099 B= 57.1101931 MOID= 1.20234001 TP= 2020-May-04.9499501484 Comet physical (GM= km^3/s^2; RAD= km): GM= n.a. RAD= n.a. M1= 10.2 M2= n.a. k1= 4.5 k2= n.a. PHCOF= n.a. Comet non-gravitational force model (AMRAT=m^2/kg;A1-A3=au/d^2;DT=days;R0=au): AMRAT= 0. DT= -46.74264 A1= 3.594046354294E-8 A2= -7.516440749168E-10 A3= -3.174887225032E-10 Standard model: ALN= .1112620426 NK= 4.6142 NM= 2.15 NN= 5.093 R0= 2.808 COMET comments 1: soln ref.= JPL#60, data arc: 2017-09-15 to 2021-08-19 2: k1=4.5; ******************************************************************************* ******************************************************************************* Ephemeris / WWW_USER Fri Dec 12 17:42:28 2025 Pasadena, USA / Horizons ******************************************************************************* Target body name: PANSTARRS (C/2017 T2) {source: JPL#60} Center body name: Solar System Barycenter (0) {source: DE441} Center-site name: BODY CENTER ******************************************************************************* Start time : A.D. 1600-Jan-01 00:00:00.0000 TDB Stop time : A.D. 2500-Jan-01 00:00:00.0000 TDB Step-size : 900 calendar years ******************************************************************************* Center geodetic : 0.0, 0.0, 0.0 {E-lon(deg),Lat(deg),Alt(km)} Center cylindric: 0.0, 0.0, 0.0 {E-lon(deg),Dxy(km),Dz(km)} Center radii : (undefined) Keplerian GM : 2.9630927493968080E-04 au^3/d^2 Small perturbers: Yes {source: SB441-N16} Output units : AU-D, deg, Julian Day Number (Tp) Calendar mode : Mixed Julian/Gregorian Output type : GEOMETRIC osculating elements Output format : 10 Reference frame : Ecliptic of J2000.0 ******************************************************************************* Initial IAU76/J2000 heliocentric ecliptic osculating elements (au, days, deg.): EPOCH= 2458830.5 ! 2019-Dec-13.0000000 (TDB) RMSW= n.a. EC= .9996775001442036 QR= 1.615095480449734 TP= 2458974.4499501484 OM= 64.3787798536482 W= 92.99331641725109 IN= 57.23144008937928 Equivalent ICRF heliocentric cartesian coordinates (au, au/d): X= 5.625476171115743E-01 Y= 1.797242716974581E+00 Z= 1.591100352840226E+00 VX=-9.734975155177910E-03 VY=-1.176041582244319E-02 VZ= 2.630014637775215E-03 Comet physical (GM= km^3/s^2; RAD= km): GM= n.a. RAD= n.a. M1= 10.2 M2= n.a. k1= 4.5 k2= n.a. PHCOF= n.a. Comet non-gravitational force model (AMRAT=m^2/kg;A1-A3=au/d^2;DT=days;R0=au): AMRAT= 0. DT= -46.74264 A1= 3.594046354294E-8 A2= -7.516440749168E-10 A3= -3.174887225032E-10 Standard model: ALN= .1112620426 NK= 4.6142 NM= 2.15 NN= 5.093 R0= 2.808 ******************************************************************************* JDTDB EC QR IN OM W Tp N MA TA A AD PR ******************************************************************************* $$SOE 2305447.500000000 = A.D. 1600-Jan-01 00:00:00.0000 TDB EC= 9.999562888372129E-01 QR= 1.619341504401894E+00 IN= 5.714075635756350E+01 OM= 6.447319157302138E+01 W = 9.290256612160373E+01 Tp= 2458974.500809634104 N = 1.383171793370848E-07 MA= 3.599787645782959E+02 TA= 1.882228226434723E+02 A = 3.704640648140616E+04 AD= 7.409119362130792E+04 PR= 2.602713572712937E+09 2634166.500000000 = A.D. 2500-Jan-01 00:00:00.0000 TDB EC= 9.989011591794211E-01 QR= 1.611052567070118E+00 IN= 5.717835467555408E+01 OM= 6.424327164340259E+01 W = 9.294375520906175E+01 Tp= 2458975.568729171995 N = 1.756842646747275E-05 MA= 3.077828993799600E+00 TA= 1.725116661195197E+02 A = 1.466138258516295E+03 AD= 2.930665464465519E+03 PR= 2.049130584725535E+07 $$EOE ******************************************************************************* TIME Barycentric Dynamical Time ("TDB" or T_eph) output was requested. This continuous coordinate time is equivalent to the relativistic proper time of a clock at rest in a reference frame co-moving with the solar system barycenter but outside the system's gravity well. It is the independent variable in the solar system relativistic equations of motion. TDB runs at a uniform rate of one SI second per second and is independent of irregularities in Earth's rotation. CALENDAR SYSTEM Mixed calendar mode was active such that calendar dates after AD 1582-Oct-15 (if any) are in the modern Gregorian system. Dates prior to 1582-Oct-5 (if any) are in the Julian calendar system, which is automatically extended for dates prior to its adoption on 45-Jan-1 BC. The Julian calendar is useful for matching historical dates. The Gregorian calendar more accurately corresponds to the Earth's orbital motion and seasons. A "Gregorian-only" calendar mode is available if such physical events are the primary interest. REFERENCE FRAME AND COORDINATES Ecliptic at the standard reference epoch Reference epoch: J2000.0 X-Y plane: adopted Earth orbital plane at the reference epoch Note: IAU76 obliquity of 84381.448 arcseconds wrt ICRF X-Y plane X-axis : ICRF Z-axis : perpendicular to the X-Y plane in the directional (+ or -) sense of Earth's north pole at the reference epoch. Symbol meaning [1 au= 149597870.700 km, 1 day= 86400.0 s]: JDTDB Julian Day Number, Barycentric Dynamical Time EC Eccentricity, e QR Periapsis distance, q (au) IN Inclination w.r.t X-Y plane, i (degrees) OM Longitude of Ascending Node, OMEGA, (degrees) W Argument of Perifocus, w (degrees) Tp Time of periapsis (Julian Day Number) N Mean motion, n (degrees/day) MA Mean anomaly, M (degrees) TA True anomaly, nu (degrees) A Semi-major axis, a (au) AD Apoapsis distance (au) PR Sidereal orbit period (day) ABERRATIONS AND CORRECTIONS Geometric osculating elements have NO corrections or aberrations applied. Computations by ... Solar System Dynamics Group, Horizons On-Line Ephemeris System 4800 Oak Grove Drive, Jet Propulsion Laboratory Pasadena, CA 91109 USA General site: https://ssd.jpl.nasa.gov/ Mailing list: https://ssd.jpl.nasa.gov/email_list.html System news : https://ssd.jpl.nasa.gov/horizons/news.html User Guide : https://ssd.jpl.nasa.gov/horizons/manual.html Connect : browser https://ssd.jpl.nasa.gov/horizons/app.html#/x API https://ssd-api.jpl.nasa.gov/doc/horizons.html command-line telnet ssd.jpl.nasa.gov 6775 e-mail/batch https://ssd.jpl.nasa.gov/ftp/ssd/horizons_batch.txt scripts https://ssd.jpl.nasa.gov/ftp/ssd/SCRIPTS Author : Jon.D.Giorgini@jpl.nasa.gov ******************************************************************************* !$$SOF CENTER = '@0' COMMAND = '2017 T2' OUT_UNITS = 'AU-D' START_TIME = '1600-01-01' STEP_SIZE = '900 years' STOP_TIME = '2500-01-01' TABLE_TYPE = 'ELEMENTS'